Concordia, KS

7:00 PM CST on December 05, 2019 (GMT -0600)
Blosser Municipal

Weather History for KCNK - July, 2019

Change the Weather History Date:

Friday, July 19, 2019

  Actual Average Record
Temperature  
Mean Temperature 91 °F 79 °F  
Max Temperature 101 °F 91 °F 109 °F (2006)
Min Temperature 81 °F 68 °F 55 °F (2009)
Degree Days  
Heating Degree Days 0 0  
Month to date heating degree days 0 0  
Since 1 June heating degree days 0 13  
Since 1 July heating degree days 0 0  
Cooling Degree Days 26 14  
Month to date cooling degree days 314 262  
Year to date cooling degree days 735 616  
Since 1 June cooling degree days 635 527  
Growing Degree Days 40 (Base 50)    
Moisture  
Dew Point 70 °F    
Average Humidity 53    
Maximum Humidity 67    
Minimum Humidity 39    
Precipitation  
Precipitation 0.00 in 0.12 in 1.97 in (1908)
Month to date precipitation 3.14 2.60  
Year to date precipitation 22.21 16.64  
Snow  
Snow 0.00 in 0.00 in T in (1900)
Month to date snowfall 0.0 0.0  
Year to date snowfall 32.3 13.7  
Since 1 July snowfall 0.0 0.0  
Snow Depth 0.00 in    
Sea Level Pressure  
Sea Level Pressure 29.69 in    
Wind  
Wind Speed 17 mph (South)    
Max Wind Speed 26 mph    
Max Gust Speed 34 mph    
Visibility 10 miles    
Events      
T = Trace of Precipitation, MM = Missing Value Source: NWS Daily Summary

Daily Weather History Graph

Daily Weather History Graph

Search for Another Location

Airport or City:

Astronomy

Jul. 19, 2019 Rise Set
Actual Time 6:18 AM CDT 8:54 PM CDT
Civil Twilight 5:47 AM CDT 9:25 PM CDT
Nautical Twilight 5:08 AM CDT 10:04 PM CDT
Astronomical Twilight 4:24 AM CDT 10:48 PM CDT
Moon 10:54 PM CDT (7/19) 8:46 AM CDT (7/19)
Length of Visible Light 15h 38m
Length of Day
14h 35m
Waning Gibbous, 93% of the Moon is Illuminated
Jul 19
Waning Gibbous
Jul 24
Last Quarter
Jul 31
New
Aug 7
First Quarter
Aug 15
Full

Hourly Weather History & Observations

Time (CDT) Temp. Heat Index Dew Point Humidity Pressure Visibility Wind Dir Wind Speed Gust Speed Precip Events Conditions
12:55 AM 87.1 °F 91.3 °F 69.1 °F 55% 29.69 in 10.0 mi South 19.6 mph 27.6 mph N/A   Clear
1:55 AM 86.0 °F 90.1 °F 69.1 °F 57% 29.69 in 10.0 mi South 19.6 mph 28.8 mph N/A   Clear
2:55 AM 84.0 °F 88.4 °F 70.0 °F 63% 29.69 in 10.0 mi South 17.3 mph 27.6 mph N/A   Clear
3:55 AM 82.9 °F 86.5 °F 69.1 °F 63% 29.69 in 10.0 mi South 19.6 mph - N/A   Clear
4:55 AM 82.9 °F 86.5 °F 69.1 °F 63% 29.68 in 10.0 mi SSW 25.3 mph 34.5 mph N/A   Clear
5:55 AM 82.0 °F 84.9 °F 68.0 °F 62% 29.68 in 10.0 mi South 19.6 mph 32.2 mph N/A   Clear
6:55 AM 81.0 °F 83.8 °F 68.0 °F 65% 29.69 in 10.0 mi South 17.3 mph - N/A   Clear
7:55 AM 82.0 °F 85.5 °F 69.1 °F 65% 29.70 in 10.0 mi South 17.3 mph 25.3 mph N/A   Clear
8:55 AM 84.9 °F 89.4 °F 70.0 °F 61% 29.70 in 10.0 mi SSW 19.6 mph 28.8 mph N/A   Clear
9:55 AM 88.0 °F 93.8 °F 71.1 °F 57% 29.71 in 10.0 mi SSW 18.4 mph 25.3 mph N/A   Clear
10:55 AM 91.0 °F 98.2 °F 72.0 °F 53% 29.71 in 10.0 mi SSW 13.8 mph 24.2 mph N/A   Clear
11:55 AM 93.9 °F 100.8 °F 71.1 °F 47% 29.71 in 10.0 mi SSW 16.1 mph - N/A   Clear
12:55 PM 96.1 °F 104.9 °F 72.0 °F 46% 29.70 in 10.0 mi South 16.1 mph - N/A   Clear
1:55 PM 97.0 °F 109.3 °F 75.0 °F 49% 29.69 in 10.0 mi South 16.1 mph 25.3 mph N/A   Clear
2:55 PM 99.0 °F 109.3 °F 73.0 °F 43% 29.68 in 10.0 mi South 18.4 mph 27.6 mph N/A   Clear
3:55 PM 100.0 °F 109.3 °F 72.0 °F 40% 29.67 in 10.0 mi South 18.4 mph 26.5 mph N/A   Clear
4:55 PM 99.0 °F 109.3 °F 73.0 °F 43% 29.66 in 10.0 mi South 18.4 mph 29.9 mph N/A   Clear
5:55 PM 99.0 °F 107.0 °F 71.1 °F 40% 29.66 in 10.0 mi South 13.8 mph 24.2 mph N/A   Clear
6:55 PM 98.1 °F 105.0 °F 70.0 °F 40% 29.65 in 10.0 mi South 15.0 mph 23.0 mph N/A   Clear
7:55 PM 95.0 °F 102.5 °F 71.1 °F 46% 29.67 in 10.0 mi South 10.4 mph - N/A   Clear
8:55 PM 90.0 °F 97.9 °F 73.0 °F 57% 29.68 in 10.0 mi SSE 9.2 mph - N/A   Clear
9:55 PM 88.0 °F 92.9 °F 70.0 °F 55% 29.70 in 10.0 mi South 12.7 mph - N/A   Clear
10:55 PM 88.0 °F 91.4 °F 68.0 °F 51% 29.71 in 10.0 mi South 12.7 mph - N/A   Clear
11:55 PM 87.1 °F 89.9 °F 66.9 °F 51% 29.70 in 10.0 mi South 16.1 mph 25.3 mph N/A   Clear